Location: Wheeling
(40.0640°N, 80.7210°W)
Time: 20:41:29
(UTC-05:00)

KAITUO 1B - Pass Details

Date: 26 October 2021
Orbit: 489 x 506 km, 97.4° (Epoch: 07 December)

Event Time Altitude Azimuth Distance (km) Brightness Sun altitude
Rises 19:56:14 0° 201° (SSW) 2,551 ? -17.6°
Reaches altitude 10° 19:58:48 10° 221° (SW) 1,675 ? -18.1°
Maximum altitude 20:01:19 18° 266° (W) 1,263 ? -18.6°
Drops below altitude 10° 20:03:51 10° 311° (NW) 1,685 ? -19.0°
Sets 20:06:27 0° 331° (NNW) 2,573 ? -19.5°
